Regional Weather Roundup
Issued by NWS

Home | Current Version | Previous Version | Text Only | Print | Product List | Glossary Off
Versions: 1 2 3 4 5 6 7 8 9 10 11 12 13 14 15 16 17 18 19 20 21 22 23 24 25 26 27 28 29 30 31 32 33 34 35 36 37 38 39 40 41 42 43 44 45 46 47 48 49 50

461
ASUS43 KBIS 230731
RWRND
NORTH DAKOTA REGIONAL WEATHER ROUNDUP
NATIONAL WEATHER SERVICE EASTERN NORTH DAKOTA/GRAND FORKS ND
100 AM CST FRI FEB 23 2018

  NOTE: "FAIR" INDICATES FEW OR NO CLOUDS BELOW 12,000 FEET WITH NO
  SIGNIFICANT WEATHER AND/OR OBSTRUCTIONS TO VISIBILITY.

NDZ001>003-009>011-017-230800-
...NORTHWEST NORTH DAKOTA...

CITY           SKY/WX    TMP DP  RH WIND       PRES   REMARKS
WILLISTON      FAIR      -8 -13  78 SW3       30.25R
MINOT          FAIR       5  -2  72 W12       30.20F WCI -11
MINOT AFB      FAIR       1  -5  77 NW13      30.19F WCI -17
$$

NDZ018>021-031>035-040>046-230800-
...SOUTHWEST NORTH DAKOTA...

CITY           SKY/WX    TMP DP  RH WIND       PRES   REMARKS
BISMARCK       CLOUDY    16   9  74 NW9       30.19F WCI   4
DICKINSON      FAIR      -1  -5  82 W14       30.14S WCI -20
GARRISON         N/A     -4  -9  79 NW10      30.18F WCI -21
HETTINGER      FAIR       1  -5  75 NW10      30.14S WCI -15
$$

NDZ004>008-012>016-024-026-027-054-230800-
...NORTHEAST NORTH DAKOTA...

CITY           SKY/WX    TMP DP  RH WIND       PRES   REMARKS
GRAND FORKS    LGT SNOW  20  17  88 CALM      30.21F FOG
GRAND FORKS AF FAIR      19  15  87 CALM      30.21F
DEVILS LAKE    CLOUDY     7   4  87 NW8       30.19F WCI  -6
$$

NDZ022-023-025-028>030-036>039-047>053-230800-
...SOUTHEAST NORTH DAKOTA...

CITY           SKY/WX    TMP DP  RH WIND       PRES   REMARKS
JAMESTOWN      LGT SNOW  19  17  92 NW6       30.14F FOG     WCI  11
FARGO          LGT SNOW  21  19  92 N8        30.17F FOG     WCI  11
WAHPETON       CLOUDY    21  19  93 NE3       30.15F
$$




USA.gov is the U.S. government's official web portal to all federal, state and local government web resources and services.